Вернуться в каталог

STARLINK-32024

АктивенСвязьVLEO
NORAD 60112·PAYLOAD·🇺🇸 United States

Запущен Jun 23, 2024 с Cape Canaveral Space Force Station

Loading…

Ближайшие Пролёты (ближайшие 24 часа)

TLE

СвежийSource: CelesTrak SupGP

Эпоха: Sep 14, 2026, 21:23 UTC

1 60112C 24117X   26257.89145833  .00048610  00000+0  14355-2 0  2573
2 60112  53.1567 236.1907 0001215 107.6160 259.0885 15.34382338    15

Отслеживайте STARLINK-32024 в реальном времени с AllMySat

Download on the App Store